星链-30499 (STARLINK-30499 )

导读 | 星芒AI

STARLINK-30499 是 SpaceX Starlink 卫星互联网项目中的一颗低轨卫星,属于第 14 批组网发射的星群。该卫星运行于约 550 公里高度的近地轨道,旨在为全球用户提供高速互联网接入服务。Starlink 项目通过部署大量卫星,构建覆盖全球的宽带网络,尤其服务于偏远和网络基础设施薄弱的地区。STARLINK-30499 采用可重复使用发射技术,具备先进通信能力,并支持未来轨道调整和退役处理,以减少太空碎片风险。

基本信息
目录编号:
57918
目录名称:
STARLINK-30499
国际标识:
2023-147F
轨道中心:
EARTH
卫星名称:
星链-30499
卫星全名:
星链-30499 (STARLINK-30499 )
卫星状态:
在轨 (已飞行767 天)
发射日期:
2023-09-24 UTC
国别 :
美国 (US)
星等 :
--
轨道信息
数据来源 国际轨道数据
星历时间: 2025-10-30T01:34:31+0800
1天前
查看轨道信息
半长轴: 6861.104km
偏心率: 0.0001452
轨道倾角: 42.999°
近地点辐角 267.703°
升交点赤经 199.794°
平近点角 92.365°
近地点: 481.972km
远地点: 483.966km
周期: 94.265分钟
每日圈数: 15.276076
详细信息
固有亮度:
5
最大亮度:
0.3
卫星平台:
Starlink v2.0 mini
覆盖范围:
全球
运营商:
太空探索技术公司
运营商所在国:
美国
制造商(研发单位):
太空探索技术公司
制造商所在国:
美国
使用方式:
暂无
卫星简介
星链(Starlink)计划是由太空探索技术公司(SpaceX)提出的一个巨型低轨卫星互联网星座项目,计划在2019年至2024年间在太空搭建由约1.2万颗卫星组成的“星链”网络,其中1584颗将部署在地球上空550千米处的近地轨道,并从2020年开始工作。该卫星仍在工作。
2D轨道图
3D轨道图
轨道高度分析图
轨道倾角分析图
轨道综合分析图
查看轨道综合分析图